DW4641 Weather Reports


Display with metric or nautical units.
time (UTC)temp
F
wind
direction
speed
MPH
gust
MPH
rain 1hr
in
rain 24hr
in
rain mn
in
humidity
%
barometer
mb
20190224024010 35 128 0.0 3.0 0.00 0.00 0.00 82 1023.3
20190224023510 35 128 0.0 4.0 0.00 0.00 0.00 83 1023.3
20190224023010 35 128 0.0 4.0 0.00 0.00 0.00 83 1023.4
20190224022509 35 128 0.0 2.0 0.00 0.00 0.00 84 1023.4
20190224022010 35 128 0.0 3.0 0.00 0.00 0.00 84 1023.5
20190224021510 35 128 0.0 3.0 0.00 0.00 0.00 84 1023.5
20190224021010 35 128 0.0 3.0 0.00 0.00 0.00 84 1023.5
20190224020510 35 128 0.0 3.0 0.00 0.00 0.00 84 1023.7
20190224020010 35 128 1.0 3.0 0.00 0.00 0.00 84 1023.8
20190224015510 35 128 0.0 3.0 0.00 0.00 0.00 84 1024.0
20190224015009 35 128 0.0 2.0 0.00 0.00 0.00 83 1024.0
20190224014510 35 128 0.0 2.0 0.00 0.00 0.00 83 1024.1
20190224014010 35 128 1.0 2.0 0.00 0.00 0.00 83 1024.2
20190224013510 35 128 0.0 3.0 0.00 0.00 0.00 82 1024.3
20190224013010 35 127 1.0 3.0 0.00 0.00 0.00 82 1024.3
20190224012509 35 128 1.0 3.0 0.00 0.00 0.00 82 1024.3
20190224012010 35 128 1.0 3.0 0.00 0.00 0.00 82 1024.3
20190224011510 35 128 0.0 3.0 0.00 0.00 0.00 81 1024.5
20190224011010 35 129 0.0 2.0 0.00 0.00 0.00 81 1024.7
20190224010510 35 129 0.0 3.0 0.00 0.00 0.00 80 1024.7
20190224010011 35 128 1.0 3.0 0.00 0.00 0.00 80 1024.7
20190224005510 35 128 1.0 3.0 0.00 0.00 0.00 79 1024.9
20190224005010 35 128 1.0 3.0 0.00 0.00 0.00 79 1024.9
20190224004509 35 128 1.0 3.0 0.00 0.00 0.00 78 1024.8
20190224004010 35 129 0.0 3.0 0.00 0.00 0.00 78 1024.7
20190224003510 35 128 0.0 2.0 0.00 0.00 0.00 78 1024.9
20190224003010 35 128 0.0 2.0 0.00 0.00 0.00 78 1025.0
20190224002509 35 128 1.0 3.0 0.00 0.00 0.00 78 1024.9
20190224002010 35 128 0.0 3.0 0.00 0.00 0.00 78 1024.8
20190224001510 35 129 0.0 2.0 0.00 0.00 0.00 78 1024.8
20190224001010 35 128 0.0 3.0 0.00 0.00 0.00 78 1025.0
20190224000510 35 128 1.0 3.0 0.00 0.00 0.00 78 1025.0
20190224000011 35 129 0.0 3.0 0.00 0.00 0.00 78 1025.0
20190223235510 35 129 0.0 2.0 0.00 0.00 0.00 77 1024.9
20190223235009 35 128 1.0 3.0 0.00 0.00 0.00 77 1024.9
20190223234509 35 128 1.0 3.0 0.00 0.00 0.00 77 1024.9
20190223234010 35 128 0.0 2.0 0.00 0.00 0.00 77 1025.0
20190223233510 35 129 0.0 2.0 0.00 0.00 0.00 77 1025.0
20190223233009 35 129 0.0 2.0 0.00 0.00 0.00 77 1025.0
20190223232510 35 128 0.0 2.0 0.00 0.00 0.00 76 1025.1
20190223232010 35 128 0.0 2.0 0.00 0.00 0.00 77 1025.0
20190223231509 35 128 0.0 3.0 0.00 0.00 0.00 77 1025.0
20190223231010 35 129 0.0 3.0 0.00 0.00 0.00 76 1024.9
20190223230510 35 0 0.0 0.0 0.00 0.00 0.00 76 1025.1
20190223230010 35 129 0.0 2.0 0.00 0.00 0.00 76 1025.0
20190223225509 35 128 1.0 3.0 0.00 0.00 0.00 76 1024.9
20190223225010 35 128 1.0 3.0 0.00 0.00 0.00 76 1025.1
20190223224509 35 129 0.0 2.0 0.00 0.00 0.00 75 1024.9
20190223224009 35 129 0.0 2.0 0.00 0.00 0.00 74 1025.1
20190223223509 35 129 0.0 2.0 0.00 0.00 0.00 74 1025.0
20190223223011 35 128 1.0 3.0 0.00 0.00 0.00 73 1025.1
20190223222509 35 128 1.0 3.0 0.00 0.00 0.00 73 1025.1
20190223222010 36 128 1.0 3.0 0.00 0.00 0.00 73 1025.0
20190223221509 36 128 1.0 2.0 0.00 0.00 0.00 74 1024.9
20190223221009 36 129 1.0 3.0 0.00 0.00 0.00 74 1025.3
20190223220509 36 129 1.0 3.0 0.00 0.00 0.00 73 1025.4
20190223220010 36 130 1.0 3.0 0.00 0.00 0.00 73 1025.5
20190223215509 36 129 1.0 3.0 0.00 0.00 0.00 73 1025.8
20190223215009 36 130 1.0 3.0 0.00 0.00 0.00 72 1026.0
20190223214510 36 130 1.0 4.0 0.00 0.00 0.00 72 1026.0
20190223214009 36 130 1.0 4.0 0.00 0.00 0.00 72 1026.1
20190223213509 36 132 2.0 4.0 0.00 0.00 0.00 71 1026.1
20190223213009 36 132 2.0 3.0 0.00 0.00 0.00 70 1026.4
20190223212509 36 132 2.0 4.0 0.00 0.00 0.00 70 1026.6
20190223212009 36 133 1.0 4.0 0.00 0.00 0.00 69 1026.5
20190223211510 36 134 1.0 4.0 0.00 0.00 0.00 70 1026.5
20190223211009 36 134 2.0 5.0 0.00 0.00 0.00 68 1026.8
20190223210509 36 134 2.0 5.0 0.00 0.00 0.00 68 1026.8
20190223210011 36 134 1.0 2.0 0.00 0.00 0.00 66 1026.9
20190223205510 37 134 1.0 3.0 0.00 0.00 0.00 66 1027.0
20190223205009 37 134 1.0 3.0 0.00 0.00 0.00 66 1026.9
20190223204509 37 134 1.0 3.0 0.00 0.00 0.00 66 1027.0
20190223204010 37 134 1.0 3.0 0.00 0.00 0.00 65 1027.0
20190223203509 37 134 1.0 3.0 0.00 0.00 0.00 64 1027.0
20190223203009 37 134 1.0 3.0 0.00 0.00 0.00 64 1027.1
20190223202509 37 134 1.0 4.0 0.00 0.00 0.00 64 1026.9
20190223202009 37 134 1.0 4.0 0.00 0.00 0.00 63 1026.6
20190223201509 37 135 1.0 3.0 0.00 0.00 0.00 63 1026.7
20190223201009 37 135 1.0 3.0 0.00 0.00 0.00 63 1027.0
20190223200510 37 135 1.0 3.0 0.00 0.00 0.00 62 1026.9
20190223200009 37 135 2.0 3.0 0.00 0.00 0.00 62 1027.0
20190223195509 37 135 2.0 4.0 0.00 0.00 0.00 61 1026.9
20190223195009 37 135 2.0 4.0 0.00 0.00 0.00 62 1026.9
20190223194509 37 135 2.0 4.0 0.00 0.00 0.00 60 1026.9
20190223194009 37 135 1.0 4.0 0.00 0.00 0.00 60 1026.9
20190223193509 38 135 1.0 3.0 0.00 0.00 0.00 60 1027.0
20190223193010 38 135 1.0 3.0 0.00 0.00 0.00 60 1027.0
20190223192510 38 135 1.0 3.0 0.00 0.00 0.00 59 1026.7
20190223192009 38 135 1.0 3.0 0.00 0.00 0.00 59 1026.9
20190223191509 38 135 1.0 3.0 0.00 0.00 0.00 59 1027.1
20190223191009 38 135 2.0 4.0 0.00 0.00 0.00 59 1027.1
20190223190510 38 136 1.0 4.0 0.00 0.00 0.00 59 1027.2
20190223190011 38 136 1.0 3.0 0.00 0.00 0.00 59 1027.2
20190223185509 38 135 1.0 3.0 0.00 0.00 0.00 59 1027.4
20190223185009 38 136 1.0 3.0 0.00 0.00 0.00 60 1027.4
20190223184509 38 135 1.0 5.0 0.00 0.00 0.00 59 1027.6
20190223184009 38 135 1.0 5.0 0.00 0.00 0.00 59 1027.7
20190223183509 38 134 1.0 3.0 0.00 0.00 0.00 61 1027.7
20190223183009 37 134 2.0 3.0 0.00 0.00 0.00 59 1027.7
20190223182509 38 134 2.0 4.0 0.00 0.00 0.00 58 1027.9
20190223182009 38 134 1.0 4.0 0.00 0.00 0.00 60 1028.0
20190223181509 38 135 1.0 4.0 0.00 0.00 0.00 59 1028.1
20190223181009 37 135 1.0 4.0 0.00 0.00 0.00 59 1028.0
20190223180509 37 136 1.0 4.0 0.00 0.00 0.00 59 1028.1
20190223180010 37 136 1.0 4.0 0.00 0.00 0.00 59 1028.3
20190223175509 37 135 1.0 4.0 0.00 0.00 0.00 59 1028.5
20190223175009 37 135 1.0 4.0 0.00 0.00 0.00 57 1028.7
20190223174509 37 133 2.0 5.0 0.00 0.00 0.00 58 1028.8
20190223174009 37 131 2.0 5.0 0.00 0.00 0.00 59 1028.9
20190223173509 37 129 1.0 4.0 0.00 0.00 0.00 57 1028.9
20190223173009 36 130 2.0 5.0 0.00 0.00 0.00 58 1029.0
20190223172509 37 131 2.0 5.0 0.00 0.00 0.00 56 1029.2
20190223172009 37 133 2.0 7.0 0.00 0.00 0.00 57 1029.3
20190223171509 37 131 2.0 7.0 0.00 0.00 0.00 56 1029.3
20190223171009 37 125 2.0 4.0 0.00 0.00 0.00 57 1029.5
20190223170510 37 115 2.0 5.0 0.00 0.00 0.00 56 1029.3
20190223170009 37 106 2.0 5.0 0.00 0.00 0.00 57 1029.4
20190223165509 37 105 2.0 4.0 0.00 0.00 0.00 56 1029.4
20190223165009 37 105 2.0 6.0 0.00 0.00 0.00 56 1029.5
20190223164509 37 106 2.0 6.0 0.00 0.00 0.00 56 1029.5
20190223164009 37 107 2.0 4.0 0.00 0.00 0.00 55 1029.6
20190223163509 37 108 2.0 4.0 0.00 0.00 0.00 55 1029.5
20190223163010 37 109 2.0 4.0 0.00 0.00 0.00 56 1029.5
20190223162509 37 109 2.0 4.0 0.00 0.00 0.00 55 1029.4
20190223162009 37 106 1.0 4.0 0.00 0.00 0.00 57 1029.5
20190223161509 37 103 1.0 4.0 0.00 0.00 0.00 56 1029.6
20190223161009 37 104 1.0 4.0 0.00 0.00 0.00 57 1029.6
20190223160509 37 104 1.0 4.0 0.00 0.00 0.00 56 1029.7
20190223160010 36 105 1.0 4.0 0.00 0.00 0.00 55 1029.7
20190223155509 36 105 1.0 3.0 0.00 0.00 0.00 55 1029.7
20190223155009 36 105 1.0 6.0 0.00 0.00 0.00 56 1029.6
20190223154509 36 105 1.0 6.0 0.00 0.00 0.00 56 1029.7
20190223154009 36 105 1.0 4.0 0.00 0.00 0.00 56 1029.7
20190223153508 36 105 1.0 4.0 0.00 0.00 0.00 57 1029.9
20190223153009 36 105 2.0 4.0 0.00 0.00 0.00 57 1029.9
20190223152509 36 105 2.0 4.0 0.00 0.00 0.00 57 1029.9
20190223152009 36 105 2.0 3.0 0.00 0.00 0.00 57 1030.0
20190223151509 36 105 1.0 4.0 0.00 0.00 0.00 57 1030.0
20190223151009 35 108 1.0 4.0 0.00 0.00 0.00 58 1030.0
20190223150509 35 105 2.0 6.0 0.00 0.00 0.00 57 1030.2
20190223150009 35 102 1.0 6.0 0.00 0.00 0.00 58 1030.1
20190223145508 35 101 1.0 3.0 0.00 0.00 0.00 60 1030.2
20190223145009 35 101 1.0 3.0 0.00 0.00 0.00 60 1030.1
20190223144509 34 101 2.0 6.0 0.00 0.00 0.00 61 1030.1
20190223144009 34 101 1.0 6.0 0.00 0.00 0.00 60 1030.2
20190223143509 34 99 1.0 4.0 0.00 0.00 0.00 63 1030.2
20190223143009 34 99 1.0 4.0 0.00 0.00 0.00 62 1030.3
20190223142509 34 96 1.0 7.0 0.00 0.00 0.00 63 1030.3
20190223142009 34 93 2.0 7.0 0.00 0.00 0.00 63 1030.4
20190223141509 33 93 2.0 4.0 0.00 0.00 0.00 63 1030.4
20190223141009 33 94 2.0 4.0 0.00 0.00 0.00 63 1030.4
20190223140509 33 94 1.0 4.0 0.00 0.00 0.00 63 1030.5
20190223140009 33 97 1.0 4.0 0.00 0.00 0.00 64 1030.5
20190223135509 33 102 2.0 8.0 0.00 0.00 0.00 65 1030.5
20190223135009 33 95 2.0 8.0 0.00 0.00 0.00 65 1030.5
20190223134509 32 74 1.0 4.0 0.00 0.00 0.00 64 1030.6
20190223134009 32 54 1.0 4.0 0.00 0.00 0.00 65 1030.6
20190223133509 32 52 1.0 3.0 0.00 0.00 0.00 65 1030.7
20190223133009 32 51 1.0 3.0 0.00 0.00 0.00 65 1030.7
20190223132510 32 50 0.0 1.0 0.00 0.00 0.00 67 1030.7
20190223132009 32 50 0.0 2.0 0.00 0.00 0.00 67 1030.6
20190223131509 31 50 1.0 2.0 0.00 0.00 0.00 68 1030.6
20190223131009 31 49 1.0 3.0 0.00 0.00 0.00 68 1030.6
20190223130509 31 49 0.0 3.0 0.00 0.00 0.00 69 1030.5
20190223130010 30 47 0.0 1.0 0.00 0.00 0.00 69 1030.4
20190223125509 30 44 0.0 2.0 0.00 0.00 0.00 70 1030.4
20190223125010 30 38 1.0 3.0 0.00 0.00 0.00 70 1030.5
20190223124509 30 35 1.0 3.0 0.00 0.00 0.00 70 1030.5
20190223124009 30 34 1.0 3.0 0.00 0.00 0.00 71 1030.7
20190223123509 30 34 1.0 3.0 0.00 0.00 0.00 71 1030.6
20190223123010 30 34 0.0 2.0 0.00 0.00 0.00 71 1030.5
20190223122509 29 34 0.0 2.0 0.00 0.00 0.00 72 1030.5
20190223122009 29 35 0.0 2.0 0.00 0.00 0.00 72 1030.4
20190223121509 29 35 0.0 2.0 0.00 0.00 0.00 72 1030.4
20190223121009 29 35 0.0 2.0 0.00 0.00 0.00 72 1030.3
20190223120508 29 35 0.0 1.0 0.00 0.00 0.00 72 1030.4
20190223120009 29 34 0.0 2.0 0.00 0.00 0.00 72 1030.2
20190223115509 29 35 0.0 2.0 0.00 0.00 0.00 72 1030.2
20190223115009 29 34 1.0 2.0 0.00 0.00 0.00 72 1030.1
20190223114509 29 35 0.0 2.0 0.00 0.00 0.00 72 1030.4
20190223114009 29 35 0.0 2.0 0.00 0.00 0.00 72 1030.4
20190223113508 29 35 0.0 2.0 0.00 0.00 0.00 72 1030.3
20190223113009 29 35 0.0 1.0 0.00 0.00 0.00 72 1030.4
20190223112509 29 35 0.0 1.0 0.00 0.00 0.00 72 1030.6
20190223112009 29 35 0.0 1.0 0.00 0.00 0.00 71 1030.6
20190223111509 29 35 0.0 1.0 0.00 0.00 0.00 71 1030.5
20190223111009 30 34 0.0 1.0 0.00 0.00 0.00 71 1030.6
20190223110509 30 35 0.0 1.0 0.00 0.00 0.00 71 1030.6
20190223110009 30 35 0.0 2.0 0.00 0.00 0.00 71 1030.4
20190223105508 30 35 0.0 2.0 0.00 0.00 0.00 71 1030.4
20190223105009 30 34 0.0 1.0 0.00 0.00 0.00 71 1030.5
20190223104509 30 34 0.0 1.0 0.00 0.00 0.00 71 1030.5
20190223104009 30 35 0.0 2.0 0.00 0.00 0.00 71 1030.4
20190223103508 30 34 0.0 2.0 0.00 0.00 0.00 71 1030.3
20190223103009 30 35 0.0 2.0 0.00 0.00 0.00 71 1030.2
20190223102508 30 35 0.0 1.0 0.00 0.00 0.00 71 1030.3
20190223102009 30 35 0.0 1.0 0.00 0.00 0.00 70 1030.4
20190223101508 30 34 0.0 1.0 0.00 0.00 0.00 71 1030.1
20190223101009 30 0 0.0 0.0 0.00 0.00 0.00 70 1030.0
20190223100509 30 34 0.0 2.0 0.00 0.00 0.00 70 1030.0
20190223100009 30 34 0.0 2.0 0.00 0.00 0.00 70 1029.9
20190223095509 30 35 0.0 1.0 0.00 0.00 0.00 70 1029.9
20190223095009 30 35 0.0 1.0 0.00 0.00 0.00 70 1029.7
20190223094509 30 35 0.0 1.0 0.00 0.00 0.00 70 1029.7
20190223094009 30 34 0.0 3.0 0.00 0.00 0.00 70 1029.7
20190223093508 30 34 0.0 3.0 0.00 0.00 0.00 70 1029.5
20190223093008 30 34 0.0 2.0 0.00 0.00 0.00 70 1029.6
20190223092508 30 34 0.0 3.0 0.00 0.00 0.00 70 1029.5
20190223092009 30 34 1.0 3.0 0.00 0.00 0.00 70 1029.5
20190223091509 30 34 0.0 3.0 0.00 0.00 0.00 71 1029.5
20190223091009 30 33 0.0 3.0 0.00 0.00 0.00 71 1029.6
20190223090508 30 32 0.0 1.0 0.00 0.00 0.00 71 1029.4
20190223090009 30 32 0.0 2.0 0.00 0.00 0.00 71 1029.5
20190223085508 30 33 0.0 3.0 0.00 0.00 0.00 71 1029.6
20190223085009 31 32 0.0 3.0 0.00 0.00 0.00 71 1029.5
20190223084508 31 32 0.0 3.0 0.00 0.00 0.00 71 1029.5
20190223084008 31 31 0.0 3.0 0.00 0.00 0.00 71 1029.7
20190223083508 31 31 0.0 3.0 0.00 0.00 0.00 71 1029.7
20190223083008 31 31 0.0 3.0 0.00 0.00 0.00 71 1029.7
20190223082508 31 32 0.0 3.0 0.00 0.00 0.00 71 1029.5
20190223082009 31 33 0.0 2.0 0.00 0.00 0.00 71 1029.6
20190223081508 31 32 0.0 2.0 0.00 0.00 0.00 71 1029.7
20190223081009 31 29 0.0 4.0 0.00 0.00 0.00 70 1029.8
20190223080508 31 28 0.0 4.0 0.00 0.00 0.00 70 1030.0
20190223080009 31 294 0.0 2.0 0.00 0.00 0.00 70 1029.9
20190223075508 31 294 0.0 3.0 0.00 0.00 0.00 70 1029.9
20190223075008 31 294 0.0 3.0 0.00 0.00 0.00 70 1029.9
20190223074508 31 294 0.0 3.0 0.00 0.00 0.00 70 1029.9
20190223074009 31 294 1.0 3.0 0.00 0.00 0.00 70 1029.8
20190223073508 31 294 0.0 2.0 0.00 0.00 0.00 71 1029.8
20190223073009 31 294 0.0 1.0 0.00 0.00 0.00 71 1029.9
20190223072508 31 293 0.0 1.0 0.00 0.00 0.00 70 1029.9
20190223072009 31 294 0.0 2.0 0.00 0.00 0.00 70 1029.9
20190223071508 31 294 0.0 2.0 0.00 0.00 0.00 70 1030.0
20190223071009 31 293 0.0 1.0 0.00 0.00 0.00 70 1030.0
20190223070508 31 294 0.0 1.0 0.00 0.00 0.00 71 1030.1
20190223070009 31 294 0.0 2.0 0.00 0.00 0.00 71 1030.2
20190223065508 31 294 0.0 2.0 0.00 0.00 0.00 71 1030.2
20190223065009 31 0 0.0 0.0 0.00 0.00 0.00 71 1030.2
20190223064509 32 0 0.0 0.0 0.00 0.00 0.00 71 1030.1
20190223064009 32 294 0.0 1.0 0.00 0.00 0.00 70 1030.0
20190223063509 32 294 0.0 3.0 0.00 0.00 0.00 70 1029.9
20190223063008 32 294 0.0 3.0 0.00 0.00 0.00 70 1029.8
20190223062509 32 294 0.0 2.0 0.00 0.00 0.00 70 1029.7
20190223062009 32 294 0.0 1.0 0.00 0.00 0.00 70 1029.6
20190223061508 32 294 0.0 3.0 0.00 0.00 0.00 70 1029.5
20190223061009 32 294 0.0 3.0 0.00 0.00 0.00 70 1029.5
20190223060509 31 294 0.0 2.0 0.00 0.00 0.00 70 1029.4
20190223060009 31 294 0.0 2.0 0.00 0.00 0.00 71 1029.5
20190223055508 31 294 0.0 3.0 0.00 0.00 0.00 72 1029.6
20190223055008 31 294 0.0 3.0 0.00 0.00 0.00 71 1029.6
20190223054508 31 0 0.0 0.0 0.00 0.00 0.00 72 1029.6
20190223054008 31 0 0.0 0.0 0.00 0.00 0.00 71 1029.5
20190223053508 31 294 0.0 1.0 0.00 0.00 0.00 71 1029.5
20190223053008 31 294 0.0 1.0 0.00 0.00 0.00 71 1029.5
20190223052508 31 0 0.0 0.0 0.00 0.00 0.00 71 1029.6
20190223052008 31 0 0.0 0.0 0.00 0.00 0.00 71 1029.5
20190223051508 31 294 0.0 1.0 0.00 0.00 0.00 71 1029.5
20190223051008 32 294 0.0 1.0 0.00 0.00 0.00 71 1029.4
20190223050508 32 293 0.0 1.0 0.00 0.00 0.00 71 1029.3
20190223050009 32 293 0.0 1.0 0.00 0.00 0.00 71 1029.4
20190223045508 31 294 0.0 2.0 0.00 0.00 0.00 72 1029.3
20190223045008 31 294 0.0 2.0 0.00 0.00 0.00 72 1029.3
20190223044509 31 294 0.0 1.0 0.00 0.00 0.00 73 1029.2
20190223044008 31 0 0.0 0.0 0.00 0.00 0.00 73 1029.2
20190223043508 31 0 0.0 0.0 0.00 0.00 0.00 73 1029.2
20190223043008 31 0 0.0 0.0 0.00 0.00 0.00 73 1029.2
20190223042508 31 0 0.0 0.0 0.00 0.00 0.00 73 1029.1
20190223042008 31 0 0.0 0.0 0.00 0.00 0.00 73 1029.1
20190223041508 31 0 0.0 0.0 0.00 0.00 0.00 72 1029.1
20190223041008 32 0 0.0 0.0 0.00 0.00 0.00 71 1029.0
20190223040511 32 0 0.0 0.0 0.00 0.00 0.00 71 1028.8
20190223040009 32 0 0.0 0.0 0.00 0.00 0.00 71 1028.7
20190223035508 32 0 0.0 0.0 0.00 0.00 0.00 71 1028.6
20190223035008 32 294 0.0 1.0 0.00 0.00 0.00 70 1028.6
20190223034508 32 294 0.0 1.0 0.00 0.00 0.00 71 1028.7
20190223034009 31 0 0.0 0.0 0.00 0.00 0.00 72 1028.6
20190223033508 31 294 0.0 1.0 0.00 0.00 0.00 72 1028.5
20190223033021 32 294 0.0 1.0 0.00 0.00 0.00 72 1028.5
20190223032508 32 0 0.0 0.0 0.00 0.00 0.00 71 1028.4
20190223032008 32 0 0.0 0.0 0.00 0.00 0.00 71 1028.4
20190223031508 32 0 0.0 0.0 0.00 0.00 0.00 71 1028.4
20190223031008 32 0 0.0 0.0 0.00 0.00 0.00 70 1028.3
20190223030509 32 294 0.0 1.0 0.00 0.00 0.00 70 1028.3
20190223030008 32 293 0.0 1.0 0.00 0.00 0.00 70 1028.1
20190223025508 32 293 0.0 1.0 0.00 0.00 0.00 69 1028.0
20190223025008 33 0 0.0 0.0 0.00 0.00 0.00 69 1028.1
20190223024508 33 0 0.0 0.0 0.00 0.00 0.00 68 1028.0